Regional Weather Roundup
Issued by NWS

Home | Current Version | Previous Version | Text Only | Print | Product List | Glossary Off
Versions: 1 2 3 4 5 6 7 8 9 10 11 12 13 14 15 16 17 18 19 20 21 22 23 24 25 26 27 28 29 30 31 32 33 34 35 36 37 38 39 40 41 42 43 44 45 46 47 48 49 50

000
ASUS45 KTFX 280119
RWRMT
MONTANA HOURLY WEATHER ROUNDUP
NATIONAL WEATHER SERVICE GREAT FALLS MT
619 PM MST THU NOV 27 2014

NOTE: "FAIR" INDICATES FEW OR NO CLOUDS BELOW 12000 FEET WITH NO
SIGNIFICANT WEATHER AND/OR OBSTRUCTIONS TO VISIBILITY.

* THESE STATIONS ARE NOT UNDER NWS QUALITY CONTROL. THEY DO NOT
   REPORT WEATHER SUCH AS PRECIPITATION OR FOG.

MTZ001>007-043-280200-
WEST OF THE DIVIDE
CITY           SKY/WX    TMP DP  RH WIND       PRES   REMARKS
KALISPELL      CLOUDY    45  36  71 VRB7      29.76F
MISSOULA       CLOUDY    46  37  71 N7        29.88F
BUTTE          CLOUDY    45  32  60 SW13      29.94S
MULLAN PASS    LGT RAIN  36  36 100 SW14G29   29.82F VSB 1/2  WCI  27
* ESSEX        N/A       38  37  96 W2         N/A
* EUREKA APT   MOCLDY    50  39  66 SE12G22   29.70F
* HAMILTON APT CLOUDY    52  37  57 S17       29.91R
* LIBBY APT    MOCLDY    45  43  93 CALM      29.75F
* LINCOLN      N/A       35  34  96 N1         N/A
* LOOKOUT PASS N/A       40  38  93 SE6G21     N/A   WCI  36
* POLSON       N/A       45  39  80 S4G11      N/A
* RONAN APT    PTCLDY    45  37  74 N/A        N/A
* SEELEY LAKE  N/A       35  34  96 N3         N/A
* THOMP F APT  MOCLDY    40  30  68 NE6        N/A   WCI  36
* YAAK HILL    N/A       44  42  93 S1G6       N/A
$$

MTZ008-052>055-280200-
SOUTHWEST MONTANA
CITY           SKY/WX    TMP DP  RH WIND       PRES   REMARKS
BOZEMAN        CLOUDY    48  30  50 SW8       29.90S
DILLON         CLOUDY    46  32  58 S9        29.99R
* W YELLOWSTON CLOUDY    35  30  82 SW2G7      N/A
* ENNIS APT    CLOUDY    46  28  50 S15G22     N/A
* THREE FORKS  CLOUDY    46  46 100 SW13G20    N/A
* BOULDER HILL N/A       45  27  49 S20G35     N/A
* MONIDA PASS  N/A       36  29  76 SE19       N/A   WCI  25
* RAYNOLDS PAS N/A       39  24  55 S11G20     N/A   WCI  32
* WHITEHALL    N/A       55  32  42 SW15G26    N/A
* WISE RIVER   N/A       41  34  76 NW6G30     N/A
$$

MTZ009>010-012-014-046-048-049-054-280200-
EAST SLOPES AND CENTRAL MONTANA
CITY           SKY/WX    TMP DP  RH WIND       PRES   REMARKS
CUT BANK       PTCLDY    43  36  76 W17       29.68F
GREAT FALLS    PTCLDY    48  36  63 W17       29.72F
HELENA         MOCLDY    50  34  54 N/A       29.82S
MALMSTROM AFB  PTCLDY    52  36  55 W18G28    29.74S
* CONRAD       PTCLDY    50  37  61 S23G33     N/A
* DEARBORN     N/A       56  35  45 SE17G29    N/A
* EAST GLACIER N/A       38  36  93 W21G27     N/A   WCI  28
* MONARCH      N/A       46  22  39 SW16G22    N/A
* PENDROY      N/A       43  33  68 W18G23     N/A
* ROGERS PASS  N/A       40  36  86 E9G20      N/A   WCI  34
* SAINT MARY   N/A       40  37  89 S8G17      N/A   WCI  35
* SWEET GRASS  N/A       26  26 100 N7         N/A   WCI  18
* WHITE SULPH  N/A       51  31  46 SW15G31    N/A
$$

MTZ011-013-016-021-035-040-045-047-050-051-280200-
NORTH CENTRAL MONTANA
CITY           SKY/WX    TMP DP  RH WIND       PRES   REMARKS
HAVRE          FOG       28  28 100 W6        29.70F VSB 1/2  WCI  21
LEWISTOWN      PTCLDY    48  34  59 SW14      29.77F
* N BAR RANCH  CLEAR     52  28  40 W12G18    29.78R
* CHINOOK      PTCLDY    34  30  85 NW3       29.71F
* FORT BENTON  PTCLDY    52  36  55 SW14      29.71S
* CHESTER      N/A       41  33  73 W3         N/A
* DENTON       N/A       44  29  56 S9         N/A
* GEYSER       N/A       45  26  47 SW9        N/A
* JUDITH GAP   N/A       43  27  53 W8         N/A
* LOMA         N/A       50  36  59 SW4G9      N/A
$$

MTZ017>020-022>027-061-062-280200-
NORTHEAST MONTANA
CITY           SKY/WX    TMP DP  RH WIND       PRES   REMARKS
GLASGOW        FOG       25  23  92 E12       29.75S WCI  14
GLENDIVE       PTCLDY    30  27  89 S6        29.77S WCI  24
JORDAN         PTCLDY    37  34  89 NW9       29.74S WCI  30
SIDNEY         PTCLDY    27  23  85 N6        29.82S WCI  20
WOLF POINT     PTCLDY    25  21  85 E9        29.80R WCI  16
* BEAVER HILL  N/A       36  29  76 SW10       N/A   WCI  29
* CIRCLE       N/A       35  31  85 NE5        N/A   WCI  31
* LINDSAY DVD  N/A       43  33  68 SW18G24    N/A
* NAVAJO       N/A       17  15  92 E9G14      N/A   WCI   6
* PLENTYWOOD A CLEAR     18  14  84 E13       29.84R WCI   5
* POPLAR APT   CLEAR     21  19  92 N/A       29.80R
* SACO         N/A       28  26  92 NE10       N/A   WCI  19
$$

MTZ028>042-056>058-280200-
SOUTHCENTRAL AND SOUTHEAST MONTANA
CITY           SKY/WX    TMP DP  RH WIND       PRES   REMARKS
BAKER          MOCLDY    36  28  73 W8        29.79S WCI  30
BILLINGS       PTCLDY    46  28  50 SW18      29.82F
LIVINGSTON     MOCLDY    52  28  40 SW37G53   29.84R
MILES CITY     MOCLDY    39  34  82 S6        29.78F WCI  35
* BIG TIMBER A PTCLDY    52  28  40 W18G26    29.82S
* FORSYTH APT  PTCLDY    46  34  63 CALM      29.78F
* LAUREL APT   PTCLDY    45  23  42 SW13       N/A
* ALZADA       N/A       40  29  65 NW2        N/A
* HYSHAM       N/A       50  24  36 W3G9       N/A
* LAME DEER    N/A       49  28  44 W11G16     N/A
* REED POINT   N/A       39  34  82 S1         N/A
* ROSCOE HILL  N/A       52  14  22 SW16G37    N/A
$$

REGIONAL REPORTS...DAKOTAS
CITY           SKY/WX    TMP DP  RH WIND       PRES   REMARKS
WILLISTON      CLOUDY    19  12  74 E9        29.84F WCI   8
DICKINSON      PTCLDY    25  19  78 S9        29.78S WCI  16
BEACH          CLEAR     37  32  82 W16       29.77S WCI  28
CROSBY         CLOUDY    14  12  92 E13       29.89F
TIOGA          CLOUDY    12  12 100 SE16G21   29.89F WCI  -5
BISMARCK       LGT SNOW  12   7  80 SE17      29.97F WCI  -5
GRAND FORKS    LGT SNOW   7   0  73 S9        30.23F VSB 2    WCI  -6
FARGO          CLOUDY     9  -2  61 SE12      30.23F WCI  -6
BUFFALO SD     CLEAR     27  21  78 S8        29.76F WCI  19
RAPID CITY     CLEAR     28  25  89 CALM      29.87S
$$

REGIONAL REPORTS...WYOMING/IDAHO/WASHINGTON
CITY           SKY/WX    TMP DP  RH WIND       PRES   REMARKS
GILLETTE       CLEAR     45  28  51 SW14      29.91S
SHERIDAN       PTCLDY    48  27  44 E5        29.87S
CODY           CLOUDY    54  27  35 SW12G23   29.96F
YELLOWSTONE LA CLOUDY    32  30  92 CALM      30.16F
SALMON         CLOUDY    46  36  68 S13G20    30.01R
MULLAN PASS    LGT RAIN  36  36 100 SW14G29   29.82S VSB 1/2  WCI  27
SAND POINT     CLOUDY    48  43  83 SW6       29.75F
SPOKANE        MOCLDY    52  43  72 SW16      29.78S
$$

REGIONAL REPORTS...ALBERTA
CITY           SKY/WX    TMP DP  RH WIND       PRES   REMARKS
CALGARY        LGT SNOW  12   9  88 N15       29.74F VSB 1 1/2 WCI  -4
LETHBRIDGE     FOG       27  27 100 NE5       29.72F WCI  21
MEDICINE HAT   FOG       28  28 100 NW6       29.72F VSB 1 1/2 WCI  21
EDMONTON       LGT SNOW   3  -2  79 NE15      29.95F VSB 1    WCI -16
MILK RIVER     N/A       27  27 100 N7         N/A   WCI  19
$$

REGIONAL REPORTS...SASKATCHEWAN
CITY           SKY/WX    TMP DP  RH WIND       PRES   REMARKS
SWIFT CURRENT  CLOUDY    19  18  96 SE18G24   29.74F WCI   4
REGINA         LGT SNOW  19  16  88 E12G17    29.91F WCI   6
VAL MARIE      N/A       27  25  92 E10        N/A   WCI  18
ASSINIBOIA     N/A       18  14  84 E17        N/A   WCI   3
CORONACH       N/A       19  16  88 E9         N/A   WCI   8

$$



USA.gov is the U.S. government's official web portal to all federal, state and local government web resources and services.